QPF
0.02 0.02 0.02 0.02 0.02 0.02 0.02 0.02 0.02 0.02 0.02 0.02 0.02 0.02 0.02 0.03 0.02 0.02 0.01 0.01 0.02 0.03 0.02 0.02 0.03 0.05 0.06 0.07 0.06 0.07 0.07 0.06 0.06 0.06 0.05 0.05 0.04 0.02 0.01 0.01 0.01 0.02 0.01
0.02 0.02 0.02 0.02 0.03 0.02 0.02 0.02 0.02 0.02 0.02 0.02 0.01 0.02 0.02 0.02 0.02 0.02 0.01 0.01 0.01 0.02 0.02 0.02 0.03 0.05 0.07 0.09 0.09 0.08 0.07 0.06 0.06 0.07 0.07 0.06 0.05 0.04 0.03 0.02 0.02 0.02 0.02
0.04 0.04 0.04 0.03 0.03 0.03 0.03 0.02 0.02 0.02 0.02 0.01 0.01 0.01 0.01 0.02 0.02 0.02 0.01 0.01 0.01 0.01 0.01 0.01 0.02 0.04 0.06 0.08 0.10 0.12 0.11 0.09 0.09 0.10 0.10 0.08 0.07 0.05 0.03 0.03 0.02 0.02 0.02
0.04 0.05 0.05 0.05 0.05 0.05 0.05 0.04 0.03 0.03 0.03 0.02 0.01 0.01 0.00 0.01 0.01 0.02 0.01 0.01 0.01 0.01 0.01 0.01 0.01 0.02 0.04 0.07 0.09 0.10 0.10 0.10 0.10 0.10 0.11 0.09 0.07 0.06 0.05 0.04 0.04 0.03 0.03
0.03 0.05 0.07 0.06 0.07 0.08 0.06 0.04 0.03 0.03 0.03 0.03 0.03 0.02 0.01 0.01 0.01 0.01 0.01 0.01 0.01 0.01 0.01 0.01 0.01 0.01 0.02 0.04 0.07 0.10 0.10 0.09 0.08 0.08 0.08 0.08 0.08 0.07 0.06 0.05 0.04 0.04 0.03
0.02 0.03 0.06 0.07 0.07 0.08 0.07 0.06 0.04 0.03 0.03 0.03 0.04 0.04 0.02 0.01 0.01 0.01 0.01 0.01 0.01 0.01 0.01 0.01 0.01 0.01 0.02 0.02 0.04 0.07 0.10 0.10 0.09 0.08 0.07 0.07 0.08 0.08 0.07 0.06 0.04 0.03 0.03
0.02 0.03 0.03 0.05 0.07 0.08 0.06 0.06 0.06 0.05 0.03 0.04 0.04 0.04 0.03 0.02 0.02 0.01 0.01 0.01 0.01 0.01 0.01 0.01 0.01 0.02 0.01 0.01 0.02 0.04 0.08 0.10 0.11 0.10 0.08 0.07 0.08 0.08 0.08 0.07 0.05 0.04 0.04
0.01 0.03 0.03 0.04 0.05 0.07 0.07 0.06 0.06 0.05 0.04 0.04 0.05 0.04 0.03 0.03 0.02 0.02 0.01 0.01 0.01 0.01 0.01 0.01 0.01 0.02 0.02 0.02 0.02 0.03 0.04 0.08 0.11 0.12 0.12 0.10 0.09 0.08 0.09 0.08 0.08 0.07 0.06
0.01 0.02 0.04 0.05 0.06 0.08 0.07 0.05 0.04 0.04 0.04 0.04 0.05 0.05 0.04 0.03 0.01 0.01 0.01 0.01 0.01 0.01 0.02 0.01 0.01 0.01 0.01 0.02 0.02 0.02 0.02 0.03 0.06 0.10 0.13 0.13 0.12 0.10 0.09 0.09 0.09 0.08 0.07
0.01 0.02 0.05 0.05 0.04 0.05 0.05 0.04 0.03 0.03 0.05 0.05 0.04 0.03 0.03 0.02 0.02 0.02 0.01 0.01 0.01 0.01 0.01 0.02 0.02 0.01 0.01 0.01 0.02 0.02 0.02 0.03 0.04 0.06 0.09 0.12 0.14 0.14 0.12 0.11 0.09 0.09 0.08
0.01 0.02 0.04 0.04 0.04 0.04 0.03 0.03 0.03 0.03 0.04 0.04 0.04 0.03 0.03 0.02 0.02 0.03 0.02 0.01 0.01 0.01 0.01 0.01 0.01 0.01 0.01 0.01 0.01 0.02 0.02 0.03 0.03 0.04 0.07 0.09 0.12 0.15 0.15 0.14 0.12 0.10 0.09
0.01 0.02 0.03 0.04 0.05 0.04 0.03 0.03 0.03 0.04 0.03 0.03 0.03 0.02 0.03 0.03 0.02 0.02 0.02 0.02 0.02 0.02 0.01 0.01 0.01 0.01 0.02 0.02 0.02 0.02 0.03 0.03 0.03 0.04 0.05 0.07 0.11 0.14 0.17 0.18 0.17 0.15 0.13
0.01 0.02 0.03 0.03 0.05 0.05 0.04 0.03 0.03 0.02 0.03 0.03 0.02 0.02 0.01 0.02 0.02 0.02 0.03 0.03 0.02 0.02 0.02 0.02 0.01 0.01 0.02 0.03 0.04 0.04 0.04 0.04 0.04 0.04 0.04 0.05 0.07 0.11 0.16 0.20 0.20 0.18 0.15
0.01 0.02 0.02 0.02 0.02 0.02 0.03 0.02 0.03 0.03 0.03 0.03 0.02 0.02 0.02 0.02 0.02 0.02 0.03 0.03 0.03 0.03 0.02 0.02 0.02 0.01 0.01 0.02 0.03 0.05 0.05 0.06 0.07 0.07 0.07 0.07 0.08 0.10 0.13 0.16 0.18 0.19 0.18
0.01 0.02 0.02 0.02 0.01 0.02 0.02 0.02 0.02 0.03 0.03 0.03 0.03 0.02 0.02 0.02 0.02 0.02 0.03 0.04 0.05 0.05 0.03 0.02 0.01 0.02 0.02 0.02 0.02 0.02 0.03 0.05 0.07 0.07 0.08 0.09 0.09 0.09 0.10 0.13 0.14 0.13 0.16
0.02 0.02 0.02 0.01 0.01 0.01 0.02 0.02 0.02 0.02 0.03 0.02 0.02 0.02 0.02 0.02 0.02 0.02 0.03 0.04 0.05 0.05 0.05 0.03 0.02 0.02 0.02 0.02 0.02 0.02 0.02 0.03 0.05 0.05 0.07 0.08 0.08 0.08 0.09 0.11 0.14 0.13 0.13
0.04 0.03 0.03 0.02 0.01 0.01 0.02 0.02 0.02 0.02 0.03 0.02 0.02 0.02 0.01 0.01 0.01 0.01 0.02 0.03 0.04 0.05 0.05 0.04 0.04 0.04 0.04 0.03 0.02 0.02 0.02 0.02 0.03 0.03 0.04 0.05 0.06 0.06 0.07 0.09 0.12 0.13 0.14
0.04 0.04 0.04 0.03 0.02 0.02 0.02 0.02 0.02 0.02 0.02 0.02 0.01 0.01 0.01 0.01 0.01 0.01 0.02 0.03 0.04 0.05 0.05 0.04 0.04 0.04 0.04 0.04 0.03 0.02 0.02 0.02 0.02 0.03 0.03 0.04 0.05 0.06 0.07 0.09 0.11 0.13 0.14
0.04 0.03 0.03 0.02 0.02 0.02 0.02 0.02 0.02 0.02 0.03 0.02 0.02 0.02 0.01 0.01 0.01 0.01 0.01 0.02 0.03 0.04 0.05 0.05 0.05 0.05 0.04 0.04 0.04 0.03 0.03 0.03 0.04 0.04 0.04 0.04 0.05 0.06 0.08 0.10 0.12 0.14 0.15
0.04 0.03 0.03 0.02 0.01 0.01 0.01 0.01 0.02 0.02 0.02 0.02 0.02 0.02 0.02 0.01 0.01 0.01 0.02 0.02 0.03 0.04 0.05 0.06 0.06 0.05 0.06 0.06 0.06 0.05 0.03 0.03 0.04 0.05 0.06 0.05 0.05 0.06 0.07 0.09 0.12 0.13 0.15
0.04 0.03 0.03 0.03 0.02 0.01 0.01 0.01 0.01 0.01 0.02 0.02 0.02 0.02 0.02 0.02 0.03 0.03 0.03 0.03 0.04 0.05 0.05 0.06 0.07 0.07 0.06 0.07 0.07 0.06 0.04 0.04 0.04 0.04 0.05 0.06 0.07 0.07 0.08 0.09 0.12 0.14 0.15
0.02 0.02 0.02 0.02 0.02 0.02 0.03 0.03 0.03 0.02 0.02 0.02 0.02 0.02 0.02 0.02 0.02 0.03 0.04 0.03 0.04 0.05 0.06 0.07 0.07 0.07 0.06 0.05 0.06 0.07 0.06 0.05 0.05 0.05 0.07 0.08 0.09 0.09 0.11 0.13 0.14 0.16 0.15
0.02 0.02 0.02 0.02 0.02 0.02 0.02 0.03 0.03 0.03 0.03 0.03 0.03 0.03 0.03 0.03 0.03 0.02 0.02 0.02 0.03 0.03 0.04 0.05 0.06 0.06 0.05 0.05 0.05 0.06 0.07 0.06 0.04 0.04 0.07 0.09 0.10 0.11 0.12 0.14 0.14 0.15 0.16
0.02 0.02 0.02 0.02 0.02 0.02 0.02 0.03 0.03 0.03 0.03 0.03 0.03 0.02 0.02 0.03 0.02 0.02 0.02 0.02 0.02 0.02 0.02 0.03 0.04 0.04 0.04 0.05 0.06 0.07 0.07 0.06 0.05 0.05 0.07 0.09 0.10 0.11 0.12 0.12 0.13 0.14 0.16
0.02 0.02 0.02 0.02 0.03 0.03 0.03 0.03 0.03 0.03 0.03 0.03 0.03 0.02 0.02 0.02 0.03 0.03 0.03 0.03 0.03 0.02 0.03 0.04 0.04 0.05 0.05 0.06 0.06 0.07 0.07 0.06 0.06 0.07 0.08 0.09 0.11 0.11 0.11 0.12 0.14 0.15 0.15
0.01 0.01 0.02 0.03 0.03 0.04 0.04 0.04 0.04 0.04 0.04 0.04 0.03 0.03 0.03 0.02 0.03 0.04 0.04 0.05 0.04 0.04 0.04 0.05 0.06 0.06 0.06 0.06 0.06 0.06 0.06 0.07 0.07 0.07 0.08 0.08 0.10 0.10 0.11 0.11 0.14 0.16 0.16
MSLP
1012.58 1013.01 1013.41 1013.81 1014.21 1014.61 1015.01 1015.39 1015.74 1016.04 1016.28 1016.45 1016.57 1016.66 1016.74 1016.84 1016.97 1017.15 1017.37 1017.61 1017.86 1018.08 1018.27 1018.40 1018.48 1018.52 1018.53 1018.52 1018.50 1018.48 1018.45 1018.41 1018.34 1018.24 1018.11 1017.95 1017.78 1017.60 1017.44 1017.29 1017.17 1017.05 1016.94
1011.96 1012.41 1012.85 1013.29 1013.73 1014.17 1014.61 1015.04 1015.45 1015.81 1016.10 1016.33 1016.50 1016.62 1016.72 1016.81 1016.93 1017.07 1017.26 1017.47 1017.69 1017.90 1018.09 1018.23 1018.33 1018.38 1018.39 1018.38 1018.34 1018.29 1018.22 1018.14 1018.03 1017.90 1017.74 1017.57 1017.39 1017.22 1017.05 1016.91 1016.77 1016.65 1016.51
1011.34 1011.83 1012.30 1012.78 1013.26 1013.74 1014.22 1014.70 1015.15 1015.55 1015.90 1016.17 1016.38 1016.53 1016.64 1016.73 1016.83 1016.94 1017.09 1017.27 1017.47 1017.67 1017.86 1018.01 1018.13 1018.20 1018.23 1018.22 1018.17 1018.10 1018.01 1017.89 1017.75 1017.60 1017.43 1017.25 1017.07 1016.89 1016.73 1016.57 1016.43 1016.28 1016.12
1010.74 1011.27 1011.80 1012.32 1012.84 1013.36 1013.87 1014.37 1014.85 1015.28 1015.66 1015.97 1016.20 1016.37 1016.49 1016.58 1016.65 1016.74 1016.86 1017.01 1017.19 1017.38 1017.57 1017.74 1017.88 1017.97 1018.02 1018.02 1017.98 1017.90 1017.79 1017.66 1017.51 1017.34 1017.17 1016.99 1016.81 1016.63 1016.46 1016.30 1016.13 1015.96 1015.77
1010.15 1010.74 1011.33 1011.90 1012.45 1013.00 1013.53 1014.05 1014.53 1014.98 1015.37 1015.69 1015.95 1016.13 1016.25 1016.33 1016.40 1016.47 1016.57 1016.69 1016.85 1017.04 1017.24 1017.42 1017.58 1017.70 1017.77 1017.79 1017.76 1017.69 1017.58 1017.45 1017.30 1017.14 1016.97 1016.80 1016.62 1016.45 1016.27 1016.09 1015.90 1015.69 1015.46
1009.54 1010.19 1010.84 1011.46 1012.06 1012.64 1013.18 1013.70 1014.19 1014.63 1015.02 1015.35 1015.61 1015.80 1015.93 1016.01 1016.08 1016.14 1016.22 1016.33 1016.48 1016.66 1016.86 1017.06 1017.25 1017.39 1017.49 1017.53 1017.53 1017.48 1017.39 1017.28 1017.15 1017.00 1016.85 1016.68 1016.51 1016.33 1016.14 1015.93 1015.71 1015.47 1015.20
1008.84 1009.56 1010.27 1010.96 1011.60 1012.20 1012.76 1013.29 1013.77 1014.21 1014.60 1014.93 1015.20 1015.41 1015.55 1015.64 1015.70 1015.76 1015.84 1015.94 1016.09 1016.27 1016.48 1016.69 1016.89 1017.07 1017.19 1017.27 1017.30 1017.28 1017.22 1017.14 1017.04 1016.92 1016.79 1016.63 1016.46 1016.27 1016.06 1015.83 1015.57 1015.29 1014.99
1008.03 1008.81 1009.58 1010.32 1011.01 1011.64 1012.23 1012.77 1013.26 1013.71 1014.12 1014.46 1014.75 1014.97 1015.13 1015.24 1015.31 1015.38 1015.45 1015.56 1015.70 1015.89 1016.11 1016.33 1016.56 1016.76 1016.92 1017.03 1017.10 1017.12 1017.11 1017.06 1017.00 1016.91 1016.79 1016.65 1016.48 1016.28 1016.04 1015.77 1015.48 1015.16 1014.83
1007.10 1007.92 1008.74 1009.52 1010.25 1010.93 1011.56 1012.13 1012.66 1013.14 1013.57 1013.95 1014.27 1014.52 1014.71 1014.84 1014.93 1015.00 1015.09 1015.20 1015.35 1015.54 1015.77 1016.02 1016.27 1016.50 1016.70 1016.85 1016.96 1017.03 1017.06 1017.05 1017.02 1016.96 1016.86 1016.73 1016.55 1016.33 1016.06 1015.76 1015.42 1015.07 1014.71
1006.09 1006.92 1007.77 1008.59 1009.36 1010.09 1010.76 1011.39 1011.97 1012.50 1012.99 1013.42 1013.78 1014.07 1014.29 1014.45 1014.56 1014.65 1014.74 1014.87 1015.03 1015.25 1015.49 1015.77 1016.05 1016.32 1016.56 1016.75 1016.90 1017.01 1017.08 1017.11 1017.10 1017.06 1016.97 1016.84 1016.65 1016.41 1016.11 1015.77 1015.40 1015.02 1014.62
1005.07 1005.89 1006.73 1007.57 1008.38 1009.15 1009.88 1010.57 1011.21 1011.82 1012.37 1012.86 1013.28 1013.62 1013.88 1014.06 1014.20 1014.31 1014.43 1014.57 1014.76 1015.00 1015.28 1015.59 1015.91 1016.22 1016.50 1016.73 1016.92 1017.06 1017.15 1017.21 1017.22 1017.19 1017.10 1016.97 1016.77 1016.50 1016.18 1015.81 1015.41 1014.99 1014.56
1004.11 1004.90 1005.72 1006.55 1007.37 1008.17 1008.96 1009.71 1010.43 1011.11 1011.73 1012.29 1012.77 1013.15 1013.45 1013.67 1013.83 1013.97 1014.11 1014.29 1014.51 1014.79 1015.12 1015.48 1015.84 1016.19 1016.51 1016.77 1016.98 1017.14 1017.25 1017.31 1017.33 1017.30 1017.21 1017.07 1016.86 1016.58 1016.24 1015.85 1015.42 1014.97 1014.52
1003.27 1003.99 1004.77 1005.58 1006.40 1007.23 1008.05 1008.86 1009.64 1010.39 1011.08 1011.70 1012.23 1012.66 1012.99 1013.25 1013.44 1013.61 1013.79 1014.01 1014.28 1014.61 1014.99 1015.41 1015.82 1016.21 1016.55 1016.84 1017.06 1017.22 1017.32 1017.38 1017.39 1017.35 1017.26 1017.11 1016.89 1016.61 1016.26 1015.85 1015.41 1014.94 1014.46
1002.54 1003.20 1003.93 1004.70 1005.51 1006.34 1007.19 1008.03 1008.87 1009.67 1010.41 1011.08 1011.65 1012.12 1012.49 1012.77 1013.00 1013.21 1013.44 1013.72 1014.05 1014.44 1014.88 1015.35 1015.81 1016.23 1016.59 1016.89 1017.10 1017.25 1017.33 1017.36 1017.35 1017.29 1017.20 1017.04 1016.83 1016.55 1016.21 1015.80 1015.35 1014.87 1014.37
1001.89 1002.50 1003.17 1003.91 1004.70 1005.52 1006.37 1007.24 1008.10 1008.94 1009.72 1010.41 1011.02 1011.52 1011.92 1012.24 1012.51 1012.78 1013.06 1013.40 1013.80 1014.26 1014.76 1015.28 1015.78 1016.22 1016.59 1016.87 1017.07 1017.18 1017.23 1017.23 1017.19 1017.12 1017.01 1016.85 1016.65 1016.38 1016.05 1015.67 1015.22 1014.74 1014.23
1001.26 1001.83 1002.47 1003.18 1003.94 1004.75 1005.60 1006.47 1007.34 1008.19 1008.99 1009.71 1010.33 1010.86 1011.29 1011.66 1011.98 1012.30 1012.65 1013.06 1013.53 1014.05 1014.61 1015.17 1015.70 1016.16 1016.52 1016.77 1016.93 1017.00 1017.01 1016.97 1016.90 1016.81 1016.69 1016.55 1016.36 1016.11 1015.80 1015.43 1015.01 1014.53 1014.02
1000.60 1001.15 1001.77 1002.46 1003.21 1004.00 1004.84 1005.71 1006.58 1007.43 1008.23 1008.96 1009.61 1010.16 1010.63 1011.04 1011.42 1011.81 1012.23 1012.70 1013.24 1013.83 1014.44 1015.03 1015.57 1016.01 1016.35 1016.58 1016.69 1016.72 1016.68 1016.60 1016.51 1016.40 1016.28 1016.14 1015.97 1015.74 1015.46 1015.11 1014.70 1014.24 1013.73
999.86 1000.42 1001.05 1001.73 1002.47 1003.26 1004.09 1004.94 1005.80 1006.65 1007.46 1008.20 1008.86 1009.45 1009.96 1010.42 1010.86 1011.32 1011.81 1012.35 1012.95 1013.58 1014.22 1014.83 1015.37 1015.80 1016.11 1016.30 1016.37 1016.36 1016.29 1016.18 1016.07 1015.95 1015.83 1015.70 1015.54 1015.33 1015.07 1014.73 1014.33 1013.88 1013.37
999.10 999.67 1000.31 1001.00 1001.74 1002.52 1003.34 1004.19 1005.05 1005.89 1006.70 1007.46 1008.14 1008.76 1009.32 1009.84 1010.34 1010.86 1011.41 1012.01 1012.65 1013.32 1013.98 1014.59 1015.12 1015.53 1015.81 1015.97 1016.02 1015.98 1015.88 1015.77 1015.64 1015.53 1015.41 1015.29 1015.13 1014.93 1014.66 1014.33 1013.93 1013.47 1012.96
998.37 998.97 999.62 1000.32 1001.06 1001.84 1002.66 1003.50 1004.35 1005.20 1006.01 1006.78 1007.49 1008.15 1008.75 1009.32 1009.88 1010.45 1011.05 1011.70 1012.37 1013.05 1013.71 1014.31 1014.83 1015.22 1015.49 1015.63 1015.66 1015.62 1015.53 1015.41 1015.30 1015.19 1015.08 1014.95 1014.79 1014.58 1014.30 1013.94 1013.53 1013.05 1012.53
997.81 998.42 999.07 999.77 1000.52 1001.29 1002.10 1002.94 1003.79 1004.63 1005.45 1006.23 1006.97 1007.65 1008.29 1008.90 1009.50 1010.11 1010.75 1011.41 1012.09 1012.78 1013.43 1014.02 1014.51 1014.90 1015.15 1015.30 1015.35 1015.32 1015.25 1015.17 1015.08 1014.98 1014.88 1014.75 1014.57 1014.33 1014.01 1013.62 1013.16 1012.66 1012.12
997.53 998.12 998.77 999.46 1000.19 1000.96 1001.76 1002.58 1003.41 1004.25 1005.06 1005.85 1006.60 1007.30 1007.97 1008.60 1009.23 1009.86 1010.50 1011.17 1011.85 1012.51 1013.14 1013.72 1014.20 1014.57 1014.84 1015.01 1015.09 1015.10 1015.08 1015.04 1014.99 1014.92 1014.82 1014.68 1014.48 1014.19 1013.83 1013.38 1012.87 1012.31 1011.74
997.60 998.17 998.79 999.46 1000.16 1000.90 1001.67 1002.47 1003.28 1004.10 1004.90 1005.68 1006.42 1007.13 1007.80 1008.44 1009.06 1009.69 1010.33 1010.97 1011.62 1012.26 1012.87 1013.42 1013.89 1014.28 1014.56 1014.76 1014.89 1014.96 1015.00 1015.01 1015.00 1014.96 1014.88 1014.73 1014.50 1014.17 1013.75 1013.24 1012.66 1012.05 1011.42
998.06 998.59 999.17 999.80 1000.46 1001.16 1001.89 1002.65 1003.42 1004.20 1004.98 1005.73 1006.45 1007.14 1007.79 1008.41 1009.01 1009.62 1010.22 1010.83 1011.44 1012.05 1012.62 1013.15 1013.61 1014.00 1014.32 1014.56 1014.74 1014.88 1014.98 1015.05 1015.09 1015.08 1015.01 1014.85 1014.59 1014.22 1013.75 1013.17 1012.53 1011.86 1011.19
998.85 999.34 999.87 1000.45 1001.06 1001.70 1002.38 1003.09 1003.81 1004.54 1005.27 1005.98 1006.66 1007.31 1007.92 1008.50 1009.07 1009.63 1010.19 1010.75 1011.31 1011.87 1012.41 1012.92 1013.37 1013.77 1014.11 1014.40 1014.63 1014.82 1014.98 1015.10 1015.18 1015.20 1015.14 1014.98 1014.70 1014.31 1013.79 1013.17 1012.48 1011.76 1011.04
999.89 1000.32 1000.81 1001.33 1001.88 1002.46 1003.08 1003.72 1004.38 1005.06 1005.72 1006.37 1007.00 1007.59 1008.15 1008.69 1009.20 1009.71 1010.21 1010.72 1011.24 1011.75 1012.25 1012.73 1013.18 1013.58 1013.94 1014.25 1014.52 1014.76 1014.96 1015.12 1015.23 1015.27 1015.22 1015.07 1014.79 1014.38 1013.85 1013.21 1012.49 1011.73 1010.98
Thickness
5688 5688 5688 5687 5687 5687 5687 5687 5687 5687 5687 5687 5686 5686 5686 5685 5685 5684 5684 5681 5680 5680 5679 5679 5679 5678 5677 5676 5674 5673 5671 5670 5669 5667 5665 5663 5662 5660 5659 5657 5656 5654 5652
5679 5679 5680 5680 5680 5680 5680 5679 5680 5680 5680 5680 5680 5679 5679 5679 5678 5678 5677 5676 5675 5674 5673 5673 5673 5672 5672 5671 5670 5668 5667 5665 5664 5662 5660 5659 5657 5656 5654 5653 5652 5650 5648
5671 5671 5672 5672 5672 5671 5671 5671 5671 5671 5671 5671 5671 5672 5672 5672 5671 5671 5671 5670 5670 5668 5668 5667 5667 5666 5666 5666 5665 5664 5662 5661 5659 5658 5656 5654 5652 5651 5650 5649 5647 5646 5644
5662 5662 5663 5663 5663 5662 5662 5662 5662 5662 5662 5662 5663 5663 5664 5663 5663 5663 5663 5663 5663 5662 5662 5661 5660 5660 5659 5659 5659 5658 5657 5656 5654 5653 5651 5650 5648 5647 5646 5644 5643 5641 5640
5653 5653 5654 5654 5654 5653 5653 5652 5652 5652 5652 5652 5652 5653 5654 5655 5655 5655 5655 5655 5654 5654 5654 5654 5653 5652 5652 5652 5652 5652 5651 5650 5649 5648 5647 5645 5644 5642 5641 5640 5639 5637 5636
5644 5644 5644 5644 5644 5643 5643 5643 5642 5641 5641 5641 5642 5643 5644 5646 5646 5647 5646 5646 5645 5645 5645 5645 5645 5645 5645 5644 5644 5644 5644 5644 5643 5642 5641 5640 5639 5638 5637 5636 5635 5633 5631
5634 5634 5634 5634 5634 5634 5634 5633 5633 5631 5630 5630 5630 5631 5634 5636 5637 5638 5637 5637 5637 5636 5636 5636 5636 5636 5637 5637 5636 5636 5636 5636 5636 5636 5635 5634 5634 5633 5632 5631 5630 5629 5627
5625 5624 5624 5624 5624 5624 5623 5623 5622 5620 5620 5619 5619 5619 5622 5625 5627 5628 5627 5627 5628 5627 5627 5627 5627 5627 5627 5628 5628 5627 5627 5628 5628 5628 5628 5628 5627 5627 5626 5626 5625 5624 5623
5615 5614 5614 5614 5614 5614 5613 5612 5611 5610 5609 5608 5608 5607 5608 5614 5615 5617 5617 5617 5617 5617 5617 5617 5617 5617 5617 5618 5618 5618 5618 5618 5619 5619 5620 5620 5620 5620 5620 5619 5619 5619 5617
5606 5605 5604 5605 5605 5604 5603 5603 5601 5599 5598 5598 5596 5595 5597 5599 5597 5603 5606 5607 5606 5606 5606 5606 5606 5606 5606 5607 5607 5608 5608 5608 5608 5609 5610 5611 5612 5612 5613 5613 5613 5612 5611
5597 5596 5595 5595 5595 5594 5593 5592 5590 5589 5588 5587 5585 5584 5583 5583 5584 5585 5591 5593 5593 5594 5594 5594 5594 5595 5595 5595 5596 5597 5596 5596 5597 5599 5600 5601 5601 5603 5603 5604 5604 5604 5604
5588 5587 5586 5586 5585 5583 5583 5581 5580 5578 5577 5575 5574 5573 5571 5570 5571 5571 5574 5578 5580 5582 5581 5581 5582 5582 5582 5583 5584 5584 5584 5584 5586 5587 5588 5589 5590 5592 5593 5594 5595 5595 5595
5580 5578 5577 5575 5574 5573 5571 5570 5569 5567 5566 5564 5563 5561 5560 5559 5558 5557 5557 5561 5564 5568 5568 5569 5570 5569 5569 5570 5571 5571 5571 5572 5574 5575 5576 5577 5578 5580 5582 5583 5584 5585 5585
5570 5568 5566 5565 5564 5562 5560 5559 5557 5556 5554 5552 5551 5549 5547 5546 5544 5543 5543 5543 5547 5553 5556 5559 5558 5557 5557 5556 5558 5557 5559 5561 5562 5562 5564 5565 5567 5568 5570 5571 5573 5574 5575
5558 5557 5555 5554 5553 5551 5550 5548 5546 5544 5542 5540 5538 5536 5534 5533 5531 5531 5530 5529 5529 5535 5545 5549 5546 5546 5544 5544 5545 5544 5547 5549 5549 5551 5552 5554 5555 5557 5559 5560 5562 5564 5565
5546 5545 5545 5543 5542 5540 5538 5536 5535 5532 5530 5527 5525 5523 5521 5520 5519 5518 5518 5518 5518 5519 5527 5535 5534 5534 5532 5532 5532 5532 5535 5536 5538 5540 5541 5543 5544 5546 5548 5549 5551 5552 5555
5535 5534 5533 5532 5531 5529 5527 5525 5523 5521 5518 5516 5514 5512 5510 5508 5508 5507 5507 5507 5507 5507 5511 5520 5519 5519 5519 5520 5520 5520 5522 5524 5528 5529 5531 5532 5534 5536 5538 5540 5541 5543 5544
5524 5523 5522 5521 5520 5518 5515 5513 5512 5509 5508 5506 5504 5501 5500 5498 5497 5497 5496 5497 5497 5497 5498 5504 5507 5505 5506 5507 5508 5509 5510 5512 5515 5519 5520 5523 5525 5526 5528 5530 5532 5533 5534
5513 5512 5511 5510 5509 5507 5504 5502 5500 5498 5497 5495 5493 5492 5491 5488 5488 5487 5486 5486 5487 5487 5487 5489 5493 5493 5493 5493 5495 5497 5498 5501 5504 5507 5509 5513 5516 5517 5519 5521 5522 5524 5524
5502 5501 5499 5498 5496 5495 5493 5490 5489 5488 5487 5485 5483 5481 5480 5479 5478 5477 5476 5476 5476 5476 5475 5476 5479 5481 5481 5481 5482 5484 5488 5490 5492 5495 5498 5501 5504 5506 5509 5511 5513 5515 5515
5490 5489 5488 5487 5485 5483 5482 5480 5478 5478 5477 5476 5475 5473 5471 5469 5468 5466 5465 5466 5464 5464 5464 5464 5466 5469 5470 5470 5471 5472 5474 5478 5481 5482 5487 5490 5492 5496 5499 5502 5504 5505 5505
5478 5477 5476 5476 5475 5473 5471 5469 5467 5468 5468 5467 5466 5465 5463 5460 5458 5456 5455 5454 5453 5453 5454 5454 5456 5458 5462 5461 5459 5460 5461 5465 5471 5473 5473 5478 5480 5485 5489 5492 5495 5496 5496
5467 5466 5465 5465 5464 5463 5460 5459 5458 5457 5458 5458 5457 5456 5454 5452 5449 5448 5447 5445 5444 5443 5443 5443 5446 5449 5451 5452 5449 5450 5451 5455 5460 5462 5460 5467 5469 5474 5479 5482 5485 5487 5487
5455 5455 5455 5454 5453 5453 5450 5449 5448 5447 5448 5448 5447 5446 5445 5444 5441 5439 5438 5438 5437 5437 5436 5435 5438 5441 5442 5442 5441 5442 5443 5445 5449 5450 5450 5456 5462 5465 5469 5473 5475 5478 5480
5443 5443 5443 5443 5443 5443 5441 5439 5437 5437 5438 5438 5438 5436 5435 5434 5432 5429 5428 5428 5430 5431 5429 5429 5430 5432 5434 5434 5433 5432 5434 5436 5441 5445 5444 5448 5454 5456 5460 5464 5468 5470 5472
5431 5431 5432 5432 5431 5432 5431 5428 5426 5426 5427 5427 5427 5426 5425 5423 5422 5420 5419 5420 5422 5424 5423 5423 5424 5425 5427 5429 5429 5429 5431 5432 5434 5437 5440 5441 5445 5446 5450 5456 5458 5461 5463